| time (UTC) | temp F | wind direction | speed MPH | gust MPH | rain 1hr in | rain 24hr in | rain mn in | humidity % | barometer mb |
| 20260507093804 | 55 | 148 | 3.0 | 7.0 | 0.00 | 0.00 | 0.00 | 72 | 1015.7 |
| 20260507092306 | 54 | 154 | 2.0 | 8.0 | 0.00 | 0.00 | 0.00 | 73 | 1015.7 |
| 20260507091804 | 54 | 133 | 3.0 | 7.0 | 0.00 | 0.00 | 0.00 | 73 | 1015.7 |
| 20260507085804 | 54 | 140 | 3.0 | 6.0 | 0.00 | 0.00 | 0.00 | 74 | 1015.5 |
| 20260507085306 | 54 | 122 | 2.0 | 6.0 | 0.00 | 0.00 | 0.00 | 76 | 1015.7 |
| 20260507084804 | 54 | 123 | 2.0 | 7.0 | 0.00 | 0.00 | 0.00 | 76 | 1015.7 |
| 20260507084304 | 54 | 145 | 4.0 | 7.0 | 0.00 | 0.00 | 0.00 | 75 | 1015.6 |
| 20260507082804 | 53 | 342 | 1.0 | 6.0 | 0.00 | 0.00 | 0.00 | 78 | 1015.6 |
| 20260507081804 | 53 | 68 | 2.0 | 5.0 | 0.00 | 0.00 | 0.00 | 79 | 1015.5 |
| 20260507081304 | 53 | 75 | 2.0 | 5.0 | 0.00 | 0.00 | 0.00 | 80 | 1015.5 |
| 20260507080804 | 53 | 106 | 1.0 | 5.0 | 0.00 | 0.00 | 0.00 | 82 | 1015.5 |
| 20260507080304 | 52 | 78 | 2.0 | 3.0 | 0.00 | 0.00 | 0.00 | 83 | 1015.4 |
| 20260507075307 | 51 | 128 | 2.0 | 5.0 | 0.00 | 0.00 | 0.00 | 85 | 1015.4 |
| 20260507073804 | 50 | 97 | 2.0 | 3.0 | 0.00 | 0.00 | 0.00 | 88 | 1015.4 |
| 20260507073304 | 49 | 98 | 1.0 | 3.0 | 0.00 | 0.00 | 0.00 | 89 | 1015.3 |
| 20260507072803 | 49 | 97 | 1.0 | 6.0 | 0.00 | 0.00 | 0.00 | 89 | 1015.3 |
| 20260507072306 | 49 | 91 | 2.0 | 3.0 | 0.00 | 0.00 | 0.00 | 89 | 1015.3 |
| 20260507071304 | 48 | 76 | 1.0 | 2.0 | 0.00 | 0.00 | 0.00 | 90 | 1015.2 |
| 20260507070304 | 48 | 57 | 1.0 | 3.0 | 0.00 | 0.00 | 0.00 | 90 | 1015.2 |
| 20260507065804 | 48 | 55 | 1.0 | 3.0 | 0.00 | 0.00 | 0.00 | 90 | 1015.2 |
| 20260507065306 | 48 | 52 | 1.0 | 3.0 | 0.00 | 0.00 | 0.00 | 90 | 1015.2 |
| 20260507063804 | 47 | 48 | 0.0 | 2.0 | 0.00 | 0.00 | 0.00 | 90 | 1015.2 |
| 20260507062306 | 47 | 34 | 1.0 | 2.0 | 0.00 | 0.00 | 0.00 | 90 | 1015.0 |
| 20260507061305 | 47 | 34 | 0.0 | 2.0 | 0.00 | 0.00 | 0.00 | 90 | 1015.1 |
| 20260507060804 | 47 | 34 | 0.0 | 0.0 | 0.00 | 0.00 | 0.00 | 90 | 1015.1 |
| 20260507055804 | 47 | 34 | 0.0 | 1.0 | 0.00 | 0.00 | 0.00 | 90 | 1015.2 |
| 20260507055306 | 47 | 34 | 0.0 | 0.0 | 0.00 | 0.00 | 0.00 | 90 | 1015.0 |
| 20260507054803 | 47 | 34 | 0.0 | 1.0 | 0.00 | 0.00 | 0.00 | 90 | 1015.0 |
| 20260507054304 | 47 | 34 | 0.0 | 0.0 | 0.00 | 0.00 | 0.00 | 90 | 1014.9 |
| 20260507053304 | 47 | 34 | 1.0 | 2.0 | 0.00 | 0.00 | 0.00 | 90 | 1014.8 |
| 20260507052306 | 47 | 33 | 1.0 | 2.0 | 0.00 | 0.00 | 0.00 | 90 | 1014.8 |
| 20260507051804 | 47 | 33 | 0.0 | 1.0 | 0.00 | 0.00 | 0.00 | 90 | 1014.8 |
| 20260507051304 | 47 | 33 | 1.0 | 2.0 | 0.00 | 0.00 | 0.00 | 90 | 1014.8 |
| 20260507045306 | 47 | 34 | 0.0 | 1.0 | 0.00 | 0.00 | 0.00 | 90 | 1014.6 |
| 20260507044304 | 47 | 33 | 0.0 | 2.0 | 0.00 | 0.00 | 0.00 | 90 | 1014.6 |
| 20260507043804 | 47 | 34 | 1.0 | 2.0 | 0.00 | 0.00 | 0.00 | 90 | 1014.6 |
| 20260507042804 | 47 | 34 | 0.0 | 3.0 | 0.00 | 0.00 | 0.00 | 90 | 1014.5 |
| 20260507042306 | 47 | 47 | 0.0 | 3.0 | 0.00 | 0.00 | 0.00 | 89 | 1014.5 |
| 20260507041803 | 47 | 46 | 1.0 | 2.0 | 0.00 | 0.00 | 0.00 | 89 | 1014.5 |
| 20260507040304 | 47 | 46 | 0.0 | 2.0 | 0.00 | 0.00 | 0.00 | 89 | 1014.5 |
| 20260507034804 | 47 | 46 | 1.0 | 3.0 | 0.00 | 0.00 | 0.00 | 89 | 1014.5 |
| 20260507033804 | 47 | 51 | 1.0 | 3.0 | 0.00 | 0.00 | 0.00 | 89 | 1014.4 |
| 20260507032306 | 47 | 32 | 1.0 | 3.0 | 0.00 | 0.00 | 0.00 | 89 | 1014.4 |
| 20260507030304 | 47 | 34 | 0.0 | 0.0 | 0.00 | 0.00 | 0.00 | 89 | 1014.3 |
| 20260507025804 | 47 | 34 | 0.0 | 0.0 | 0.00 | 0.00 | 0.00 | 89 | 1014.3 |
| 20260507025306 | 47 | 34 | 0.0 | 1.0 | 0.00 | 0.00 | 0.00 | 89 | 1014.3 |
| 20260507022804 | 47 | 33 | 0.0 | 1.0 | 0.00 | 0.00 | 0.00 | 89 | 1014.2 |
| 20260507021804 | 47 | 33 | 1.0 | 2.0 | 0.00 | 0.00 | 0.00 | 89 | 1014.2 |
| 20260507020304 | 47 | 33 | 0.0 | 1.0 | 0.00 | 0.00 | 0.00 | 89 | 1014.1 |
| 20260507015804 | 47 | 33 | 1.0 | 3.0 | 0.00 | 0.00 | 0.00 | 89 | 1014.1 |
| 20260507015306 | 47 | 34 | 0.0 | 1.0 | 0.00 | 0.00 | 0.00 | 89 | 1014.2 |
| 20260507013304 | 47 | 34 | 0.0 | 2.0 | 0.00 | 0.00 | 0.00 | 89 | 1014.1 |
| 20260507012804 | 47 | 34 | 1.0 | 3.0 | 0.00 | 0.00 | 0.00 | 89 | 1014.1 |
| 20260507011804 | 47 | 40 | 1.0 | 3.0 | 0.00 | 0.00 | 0.00 | 89 | 1014.1 |
| 20260507005305 | 47 | 73 | 1.0 | 3.0 | 0.00 | 0.00 | 0.00 | 88 | 1014.1 |
| 20260507004804 | 47 | 74 | 1.0 | 3.0 | 0.00 | 0.00 | 0.00 | 88 | 1014.1 |
| 20260507003304 | 47 | 74 | 0.0 | 1.0 | 0.00 | 0.00 | 0.00 | 88 | 1014.2 |
| 20260507002804 | 47 | 74 | 1.0 | 2.0 | 0.00 | 0.00 | 0.00 | 88 | 1014.2 |
| 20260507001804 | 47 | 74 | 0.0 | 3.0 | 0.00 | 0.00 | 0.00 | 88 | 1014.3 |
| 20260506235804 | 48 | 76 | 1.0 | 2.0 | 0.00 | 0.00 | 0.00 | 87 | 1014.3 |
| 20260506235306 | 48 | 76 | 0.0 | 5.0 | 0.00 | 0.00 | 0.00 | 87 | 1014.3 |
| 20260506234804 | 48 | 46 | 1.0 | 2.0 | 0.00 | 0.00 | 0.00 | 87 | 1014.3 |
| 20260506233304 | 48 | 42 | 0.0 | 1.0 | 0.00 | 0.00 | 0.00 | 87 | 1014.2 |
| 20260506232804 | 48 | 42 | 1.0 | 2.0 | 0.00 | 0.00 | 0.00 | 87 | 1014.2 |
| 20260506232306 | 48 | 42 | 1.0 | 2.0 | 0.00 | 0.00 | 0.00 | 87 | 1014.1 |
| 20260506231304 | 48 | 42 | 0.0 | 0.0 | 0.00 | 0.00 | 0.00 | 87 | 1014.1 |
| 20260506230813 | 48 | 42 | 0.0 | 1.0 | 0.00 | 0.00 | 0.00 | 87 | 1014.1 |
| 20260506222306 | 48 | 42 | 0.0 | 1.0 | 0.00 | 0.00 | 0.00 | 85 | 1013.9 |
| 20260506221804 | 48 | 42 | 1.0 | 2.0 | 0.00 | 0.00 | 0.00 | 85 | 1013.9 |
| 20260506215804 | 49 | 42 | 0.0 | 2.0 | 0.00 | 0.00 | 0.00 | 85 | 1013.8 |
| 20260506214304 | 49 | 38 | 1.0 | 3.0 | 0.00 | 0.00 | 0.00 | 84 | 1013.7 |
| 20260506213804 | 49 | 38 | 1.0 | 3.0 | 0.00 | 0.00 | 0.00 | 84 | 1013.7 |
| 20260506212306 | 49 | 38 | 0.0 | 3.0 | 0.00 | 0.00 | 0.00 | 84 | 1013.7 |
| 20260506210804 | 49 | 30 | 0.0 | 0.0 | 0.00 | 0.00 | 0.00 | 84 | 1013.5 |
| 20260506210304 | 49 | 44 | 0.0 | 0.0 | 0.00 | 0.00 | 0.00 | 84 | 1013.5 |
| 20260506205804 | 49 | 42 | 0.0 | 0.0 | 0.00 | 0.00 | 0.00 | 84 | 1013.5 |
| 20260506202804 | 49 | 51 | 0.0 | 0.0 | 0.00 | 0.00 | 0.00 | 83 | 1013.2 |
| 20260506201804 | 49 | 57 | 2.0 | 3.0 | 0.00 | 0.00 | 0.00 | 83 | 1013.2 |
| 20260506201304 | 49 | 56 | 1.0 | 3.0 | 0.00 | 0.00 | 0.00 | 83 | 1013.1 |
| 20260506195306 | 49 | 57 | 2.0 | 3.0 | 0.00 | 0.00 | 0.00 | 82 | 1013.0 |
| 20260506194804 | 49 | 46 | 2.0 | 5.0 | 0.00 | 0.00 | 0.00 | 82 | 1013.0 |
| 20260506194304 | 49 | 46 | 2.0 | 3.0 | 0.00 | 0.00 | 0.00 | 81 | 1012.9 |
| 20260506193804 | 50 | 48 | 2.0 | 5.0 | 0.00 | 0.00 | 0.00 | 81 | 1012.9 |
| 20260506193304 | 50 | 33 | 2.0 | 5.0 | 0.00 | 0.00 | 0.00 | 80 | 1012.8 |
| 20260506192804 | 50 | 14 | 1.0 | 3.0 | 0.00 | 0.00 | 0.00 | 80 | 1012.8 |
| 20260506192305 | 50 | 18 | 2.0 | 5.0 | 0.00 | 0.00 | 0.00 | 80 | 1012.8 |
| 20260506191304 | 50 | 8 | 2.0 | 3.0 | 0.00 | 0.00 | 0.00 | 80 | 1012.7 |
| 20260506190304 | 50 | 60 | 3.0 | 6.0 | 0.00 | 0.00 | 0.00 | 80 | 1012.7 |
| 20260506184804 | 50 | 53 | 3.0 | 5.0 | 0.00 | 0.00 | 0.00 | 80 | 1012.6 |
| 20260506183303 | 50 | 32 | 2.0 | 5.0 | 0.00 | 0.00 | 0.00 | 80 | 1012.4 |
| 20260506182804 | 50 | 26 | 2.0 | 5.0 | 0.00 | 0.00 | 0.00 | 80 | 1012.4 |
| 20260506182306 | 50 | 47 | 3.0 | 8.0 | 0.00 | 0.00 | 0.00 | 79 | 1012.4 |
| 20260506181804 | 50 | 45 | 3.0 | 7.0 | 0.00 | 0.00 | 0.00 | 79 | 1012.4 |
| 20260506175803 | 51 | 48 | 3.0 | 7.0 | 0.00 | 0.00 | 0.00 | 79 | 1012.1 |
| 20260506175306 | 51 | 39 | 3.0 | 5.0 | 0.00 | 0.00 | 0.00 | 79 | 1012.0 |
| 20260506174304 | 51 | 53 | 4.0 | 9.0 | 0.00 | 0.00 | 0.00 | 79 | 1012.0 |
| 20260506173804 | 51 | 61 | 3.0 | 10.0 | 0.00 | 0.00 | 0.00 | 78 | 1012.0 |
| 20260506173303 | 51 | 63 | 4.0 | 10.0 | 0.00 | 0.00 | 0.00 | 78 | 1011.9 |
| 20260506170804 | 53 | 34 | 3.0 | 12.0 | 0.00 | 0.00 | 0.00 | 74 | 1011.8 |
| 20260506165804 | 54 | 29 | 3.0 | 5.0 | 0.00 | 0.00 | 0.00 | 72 | 1011.7 |
| 20260506163804 | 54 | 345 | 3.0 | 8.0 | 0.00 | 0.00 | 0.00 | 70 | 1011.6 |
| 20260506162804 | 54 | 29 | 3.0 | 8.0 | 0.00 | 0.00 | 0.00 | 69 | 1011.6 |
| 20260506161304 | 54 | 24 | 5.0 | 9.0 | 0.00 | 0.00 | 0.00 | 69 | 1011.7 |
| 20260506160804 | 54 | 342 | 5.0 | 13.0 | 0.00 | 0.00 | 0.00 | 69 | 1011.7 |
| 20260506160305 | 53 | 329 | 7.0 | 13.0 | 0.00 | 0.00 | 0.00 | 69 | 1011.7 |
| 20260506154804 | 54 | 25 | 6.0 | 12.0 | 0.00 | 0.00 | 0.00 | 69 | 1011.8 |
| 20260506154304 | 54 | 7 | 4.0 | 9.0 | 0.00 | 0.00 | 0.00 | 69 | 1011.8 |
| 20260506153304 | 54 | 353 | 4.0 | 8.0 | 0.00 | 0.00 | 0.00 | 69 | 1011.8 |
| 20260506152305 | 54 | 354 | 4.0 | 9.0 | 0.00 | 0.00 | 0.00 | 68 | 1011.6 |
| 20260506151804 | 55 | 34 | 5.0 | 12.0 | 0.00 | 0.00 | 0.00 | 68 | 1011.6 |
| 20260506145804 | 55 | 40 | 3.0 | 12.0 | 0.00 | 0.00 | 0.00 | 68 | 1011.7 |
| 20260506144804 | 54 | 52 | 4.0 | 12.0 | 0.00 | 0.00 | 0.00 | 69 | 1011.7 |
| 20260506143804 | 55 | 6 | 5.0 | 12.0 | 0.00 | 0.00 | 0.00 | 67 | 1011.7 |
| 20260506143304 | 55 | 20 | 4.0 | 8.0 | 0.00 | 0.00 | 0.00 | 67 | 1011.7 |
| 20260506142804 | 55 | 22 | 6.0 | 12.0 | 0.00 | 0.00 | 0.00 | 66 | 1011.7 |
| 20260506141804 | 56 | 7 | 6.0 | 15.0 | 0.00 | 0.00 | 0.00 | 65 | 1011.7 |
| 20260506141304 | 56 | 332 | 6.0 | 12.0 | 0.00 | 0.00 | 0.00 | 64 | 1011.5 |
| 20260506140804 | 56 | 350 | 6.0 | 12.0 | 0.00 | 0.00 | 0.00 | 64 | 1011.5 |
| 20260506140304 | 55 | 11 | 4.0 | 12.0 | 0.00 | 0.00 | 0.00 | 65 | 1011.6 |
| 20260506135804 | 55 | 23 | 7.0 | 12.0 | 0.00 | 0.00 | 0.00 | 65 | 1011.6 |
| 20260506134304 | 55 | 345 | 5.0 | 12.0 | 0.00 | 0.00 | 0.00 | 64 | 1011.7 |
| 20260506133304 | 56 | 13 | 5.0 | 12.0 | 0.00 | 0.00 | 0.00 | 63 | 1011.8 |
| 20260506132804 | 55 | 347 | 5.0 | 10.0 | 0.00 | 0.00 | 0.00 | 63 | 1011.8 |
| 20260506132307 | 54 | 24 | 5.0 | 10.0 | 0.00 | 0.00 | 0.00 | 64 | 1011.7 |
| 20260506125804 | 55 | 5 | 3.0 | 12.0 | 0.00 | 0.00 | 0.00 | 63 | 1011.8 |
| 20260506124804 | 55 | 337 | 5.0 | 12.0 | 0.00 | 0.00 | 0.00 | 62 | 1011.6 |
| 20260506121804 | 55 | 44 | 4.0 | 10.0 | 0.00 | 0.00 | 0.00 | 62 | 1011.6 |
| 20260506121304 | 55 | 24 | 6.0 | 12.0 | 0.00 | 0.00 | 0.00 | 65 | 1011.7 |
| 20260506115804 | 54 | 336 | 6.0 | 12.0 | 0.00 | 0.00 | 0.00 | 65 | 1011.7 |
| 20260506114804 | 54 | 1 | 6.0 | 12.0 | 0.00 | 0.00 | 0.00 | 64 | 1011.7 |
| 20260506114304 | 54 | 321 | 4.0 | 10.0 | 0.00 | 0.00 | 0.00 | 63 | 1011.7 |
| 20260506113804 | 54 | 32 | 2.0 | 9.0 | 0.00 | 0.00 | 0.00 | 63 | 1011.7 |
| 20260506113304 | 54 | 335 | 5.0 | 12.0 | 0.00 | 0.00 | 0.00 | 61 | 1011.6 |
| 20260506111303 | 53 | 339 | 6.0 | 12.0 | 0.00 | 0.00 | 0.00 | 64 | 1011.6 |
| 20260506105804 | 53 | 329 | 8.0 | 13.0 | 0.00 | 0.00 | 0.00 | 65 | 1011.6 |
| 20260506104804 | 53 | 23 | 6.0 | 13.0 | 0.00 | 0.00 | 0.00 | 65 | 1011.7 |
| 20260506103804 | 53 | 11 | 5.0 | 13.0 | 0.00 | 0.00 | 0.00 | 67 | 1011.8 |
| 20260506103304 | 53 | 27 | 7.0 | 13.0 | 0.00 | 0.00 | 0.00 | 67 | 1011.7 |
| 20260506102305 | 53 | 3 | 7.0 | 16.0 | 0.00 | 0.00 | 0.00 | 66 | 1011.6 |
| 20260506100803 | 53 | 33 | 6.0 | 13.0 | 0.00 | 0.00 | 0.00 | 68 | 1011.6 |
| 20260506095804 | 53 | 337 | 6.0 | 10.0 | 0.00 | 0.00 | 0.00 | 68 | 1011.6 |